Hourly Data Report for August 19, 2018

TORONTO CITY
ONTARIO
Current Station Operator: ECCC - MSC

43°40'00.000" N
79°24'00.000" W
112.50 m
6158355
71508
XTO

Download Data

Hourly Data (August 2018)
Hourly Data Report for August 19, 2018
TIME
LST
Temp Definition
°C
Dew Point Definition
°C
Rel Hum Definition
%
Precip. Amount Definition
mm

Wind Dir Definition
10's deg

Wind Spd Definition
km/h
Visibility Definition
km
Stn Press Definition
kPa
Hmdx Definition


Wind Chill Definition


Weather Definition


00:00 20.6 15.2 71 0.0 LegendMM LegendMM   100.20 25   LegendNANA
01:00 19.9 14.1 69 0.0 LegendMM LegendMM   100.19     LegendNANA
02:00 19.8 13.6 68 0.0 LegendMM LegendMM   100.18     LegendNANA
03:00 19.5 13.3 67 0.0 LegendMM LegendMM   100.20     LegendNANA
04:00 19.4 13.5 69 0.0 LegendMM LegendMM   100.21     LegendNANA
05:00 19.1 13.6 71 0.0 LegendMM LegendMM   100.26     LegendNANA
06:00 19.1 13.9 72 0.0 LegendMM LegendMM   100.30     LegendNANA
07:00 19.6 14.3 71 0.0 LegendMM LegendMM   100.34     LegendNANA
08:00 20.8 15.0 69 0.0 LegendMM LegendMM   100.35 25   LegendNANA
09:00 22.7 15.5 64 0.0 LegendMM LegendMM   100.39 27   LegendNANA
10:00 24.1 14.5 55 0.0 LegendMM LegendMM   100.38 28   LegendNANA
11:00 23.9 15.0 58 0.0 LegendMM LegendMM   100.39 28   LegendNANA
12:00 23.4 14.8 58 0.0 LegendMM LegendMM   100.38 27   LegendNANA
13:00 24.0 15.1 58 0.0 LegendMM LegendMM   100.39 28   LegendNANA
14:00 23.8 14.7 57 0.0 LegendMM LegendMM   100.39 28   LegendNANA
15:00 24.1 13.5 51 0.0 LegendMM LegendMM   100.37 27   LegendNANA
16:00 23.3 14.6 58 0.0 LegendMM LegendMM   100.36 27   LegendNANA
17:00 23.1 15.1 61 0.0 LegendMM LegendMM   100.34 27   LegendNANA
18:00 22.7 14.9 61 0.0 LegendMM LegendMM   100.36 27   LegendNANA
19:00 22.2 15.7 67 0.0 LegendMM LegendMM   100.34 27   LegendNANA
20:00 22.1 15.8 67 0.0 LegendMM LegendMM   100.41 27   LegendNANA
21:00 21.6 16.1 71 0.0 LegendMM LegendMM   100.47 26   LegendNANA
22:00 21.3 16.3 73 0.0 LegendMM LegendMM   100.47 26   LegendNANA
23:00 21.3 16.4 74 0.0 LegendMM LegendMM   100.43 26   LegendNANA

Notes on Data Quality.

Legend

  • E = Estimated
  • M = Missing
  • NA = Not Available*
  • [empty] = Indicates an unobserved value
Date modified: